| time (UTC) | temp C | wind direction | speed KPH | gust KPH | rain 1hr cm | rain 24hr cm | rain mn cm | humidity % | barometer mb |
| 20260902165515 | 26 | 45 | 6.4 | 9.7 | 0.00 | 2.06 | 1.98 | 81 | 1013.0 |
| 20260902164516 | 25 | 68 | 3.2 | 6.4 | 0.00 | 2.06 | 1.98 | 82 | 1013.1 |
| 20260902163516 | 25 | 90 | 3.2 | 8.0 | 0.00 | 2.06 | 1.98 | 82 | 1013.5 |
| 20260902162515 | 25 | 158 | 3.2 | 6.4 | 0.00 | 2.06 | 1.98 | 85 | 1013.6 |
| 20260902161556 | 24 | 180 | 6.4 | 9.7 | 0.00 | 2.06 | 1.98 | 85 | 1013.5 |
| 20260902160516 | 23 | 180 | 6.4 | 11.3 | 0.00 | 2.06 | 1.98 | 86 | 1013.7 |
| 20260902155515 | 23 | 180 | 4.8 | 8.0 | 0.00 | 2.06 | 1.98 | 87 | 1013.6 |
| 20260902154516 | 23 | 45 | 3.2 | 8.0 | 0.00 | 2.06 | 1.98 | 88 | 1013.5 |
| 20260902153515 | 22 | 45 | 1.6 | 6.4 | 0.00 | 2.06 | 1.98 | 89 | 1013.5 |
| 20260902152515 | 22 | 45 | 4.8 | 8.0 | 0.00 | 2.06 | 1.98 | 88 | 1013.6 |
| 20260902151536 | 22 | 45 | 4.8 | 8.0 | 0.00 | 2.06 | 1.98 | 90 | 1013.4 |
| 20260902150515 | 22 | 68 | 4.8 | 8.0 | 0.00 | 2.06 | 1.98 | 90 | 1013.2 |
| 20260902145516 | 22 | 90 | 3.2 | 6.4 | 0.00 | 2.06 | 1.98 | 89 | 1012.9 |
| 20260902144517 | 22 | 90 | 3.2 | 6.4 | 0.00 | 2.06 | 1.98 | 90 | 1012.8 |
| 20260902143517 | 22 | 113 | 4.8 | 9.7 | 0.00 | 2.06 | 1.98 | 92 | 1012.7 |
| 20260902142517 | 21 | 113 | 3.2 | 12.9 | 0.00 | 2.06 | 1.98 | 92 | 1012.8 |
| 20260902141517 | 21 | 90 | 4.8 | 9.7 | 0.00 | 2.06 | 1.98 | 94 | 1012.6 |
| 20260902140518 | 21 | 113 | 6.4 | 11.3 | 0.00 | 2.06 | 1.98 | 95 | 1012.8 |
| 20260902135517 | 21 | 113 | 8.0 | 14.5 | 0.00 | 2.06 | 1.98 | 96 | 1012.6 |
| 20260902134517 | 20 | 90 | 4.8 | 11.3 | 0.00 | 2.06 | 1.98 | 97 | 1012.5 |
| 20260902133517 | 20 | 90 | 4.8 | 9.7 | 0.00 | 2.06 | 1.98 | 98 | 1012.5 |
| 20260902132517 | 20 | 68 | 4.8 | 8.0 | 0.00 | 2.06 | 1.98 | 98 | 1012.6 |
| 20260902131517 | 19 | 90 | 4.8 | 9.7 | 0.00 | 2.06 | 1.98 | 98 | 1012.6 |
| 20260902130517 | 19 | 113 | 4.8 | 6.4 | 0.00 | 2.06 | 1.98 | 98 | 1012.8 |
| 20260902125518 | 18 | 0.0 | 3.2 | 0.00 | 2.06 | 1.98 | 98 | 1012.8 | |
| 20260902124517 | 18 | 0.0 | 0.0 | 0.00 | 2.06 | 1.98 | 98 | 1012.8 | |
| 20260902123517 | 18 | 0.0 | 0.0 | 0.00 | 2.06 | 1.98 | 98 | 1012.6 | |
| 20260902122518 | 18 | 0.0 | 0.0 | 0.00 | 2.06 | 1.98 | 98 | 1012.5 | |
| 20260902121537 | 18 | 0.0 | 0.0 | 0.00 | 2.06 | 1.98 | 98 | 1012.6 | |
| 20260902120538 | 18 | 113 | 3.2 | 6.4 | 0.00 | 2.06 | 1.98 | 98 | 1012.3 |
| 20260902115517 | 18 | 113 | 1.6 | 4.8 | 0.00 | 2.06 | 1.98 | 98 | 1012.6 |
| 20260902114517 | 18 | 113 | 1.6 | 3.2 | 0.00 | 2.06 | 1.98 | 98 | 1012.4 |
| 20260902113517 | 18 | 113 | 1.6 | 4.8 | 0.00 | 2.06 | 1.98 | 98 | 1012.3 |
| 20260902112517 | 18 | 113 | 3.2 | 4.8 | 0.00 | 2.08 | 1.98 | 98 | 1012.4 |
| 20260902111517 | 18 | 113 | 3.2 | 6.4 | 0.00 | 2.08 | 1.98 | 97 | 1012.4 |
| 20260902110517 | 18 | 113 | 1.6 | 3.2 | 0.00 | 2.08 | 1.98 | 98 | 1012.3 |
| 20260902105538 | 18 | 113 | 3.2 | 4.8 | 0.00 | 2.08 | 1.98 | 98 | 1012.5 |
| 20260902104517 | 18 | 113 | 3.2 | 6.4 | 0.00 | 2.08 | 1.98 | 97 | 1012.5 |
| 20260902103538 | 18 | 113 | 4.8 | 9.7 | 0.00 | 2.08 | 1.98 | 97 | 1012.8 |
| 20260902102518 | 18 | 113 | 3.2 | 6.4 | 0.00 | 2.08 | 1.98 | 97 | 1013.1 |
| 20260902101557 | 18 | 113 | 3.2 | 6.4 | 0.00 | 2.08 | 1.98 | 97 | 1013.4 |
| 20260902100518 | 18 | 113 | 3.2 | 6.4 | 0.00 | 2.08 | 1.98 | 97 | 1013.4 |
| 20260902095538 | 18 | 135 | 3.2 | 6.4 | 0.00 | 2.08 | 1.98 | 97 | 1013.3 |
| 20260902094517 | 18 | 135 | 4.8 | 8.0 | 0.00 | 2.08 | 1.98 | 97 | 1013.4 |
| 20260902093517 | 18 | 135 | 3.2 | 4.8 | 0.00 | 2.08 | 1.98 | 97 | 1013.5 |
| 20260902092517 | 18 | 113 | 3.2 | 11.3 | 0.00 | 2.08 | 1.98 | 97 | 1013.0 |
| 20260902091516 | 18 | 158 | 6.4 | 9.7 | 0.00 | 2.08 | 1.98 | 97 | 1013.0 |
| 20260902090557 | 18 | 158 | 6.4 | 9.7 | 0.00 | 2.08 | 1.98 | 97 | 1012.9 |
| 20260902085517 | 18 | 180 | 6.4 | 12.9 | 0.00 | 2.08 | 1.98 | 97 | 1013.0 |
| 20260902084517 | 18 | 180 | 8.0 | 14.5 | 0.00 | 2.08 | 1.98 | 97 | 1013.5 |
| 20260902083517 | 18 | 203 | 8.0 | 11.3 | 0.00 | 2.08 | 1.98 | 97 | 1014.0 |
| 20260902082517 | 18 | 0.0 | 0.0 | 0.00 | 2.08 | 1.98 | 97 | 1013.2 | |
| 20260902081516 | 18 | 0.0 | 0.0 | 0.00 | 2.08 | 1.98 | 97 | 1013.0 | |
| 20260902080518 | 18 | 180 | 1.6 | 4.8 | 0.00 | 2.08 | 1.98 | 97 | 1013.0 |
| 20260902075517 | 18 | 180 | 4.8 | 8.0 | 0.00 | 2.08 | 1.98 | 97 | 1013.0 |
| 20260902074517 | 18 | 180 | 8.0 | 11.3 | 0.00 | 2.08 | 1.98 | 97 | 1013.0 |
| 20260902073516 | 19 | 180 | 6.4 | 12.9 | 0.03 | 2.08 | 1.98 | 97 | 1013.0 |
| 20260902072557 | 19 | 180 | 11.3 | 17.7 | 0.03 | 2.08 | 1.98 | 97 | 1012.7 |
| 20260902071516 | 19 | 45 | 6.4 | 17.7 | 0.03 | 2.08 | 1.98 | 97 | 1012.8 |
| 20260902070516 | 19 | 45 | 9.7 | 17.7 | 0.05 | 2.08 | 1.98 | 97 | 1011.6 |
| 20260902065516 | 19 | 45 | 9.7 | 14.5 | 0.05 | 2.08 | 1.98 | 97 | 1011.2 |
| 20260902064517 | 19 | 90 | 11.3 | 16.1 | 0.05 | 2.08 | 1.98 | 97 | 1010.9 |
| 20260902063517 | 19 | 68 | 12.9 | 20.9 | 0.05 | 2.06 | 1.96 | 96 | 1011.5 |
| 20260902062516 | 19 | 68 | 14.5 | 22.5 | 0.08 | 2.06 | 1.96 | 96 | 1011.7 |
| 20260902061516 | 19 | 45 | 14.5 | 20.9 | 0.41 | 2.06 | 1.96 | 96 | 1012.3 |
| 20260902060516 | 19 | 90 | 8.0 | 16.1 | 1.88 | 2.03 | 1.93 | 96 | 1012.8 |
| 20260902055516 | 19 | 90 | 6.4 | 14.5 | 1.98 | 2.03 | 1.93 | 95 | 1013.4 |
| 20260902054537 | 20 | 90 | 4.8 | 11.3 | 2.01 | 2.03 | 1.93 | 95 | 1013.3 |
| 20260902053524 | 20 | 0 | 6.4 | 12.9 | 1.98 | 2.01 | 1.91 | 95 | 1013.9 |
| 20260902052550 | 20 | 248 | 16.1 | 30.6 | 1.96 | 1.98 | 1.88 | 95 | 1015.2 |
| 20260902051518 | 20 | 203 | 37.0 | 57.9 | 1.63 | 1.65 | 1.55 | 93 | 1016.5 |
| 20260902050539 | 22 | 225 | 25.7 | 48.3 | 0.13 | 0.15 | 0.05 | 94 | 1018.0 |
| 20260902045538 | 22 | 135 | 8.0 | 24.1 | 0.03 | 0.05 | 0.05 | 93 | 1013.7 |
| 20260902044519 | 22 | 113 | 6.4 | 12.9 | 0.00 | 0.03 | 0.03 | 93 | 1013.6 |
| 20260902043517 | 22 | 113 | 6.4 | 12.9 | 0.00 | 0.03 | 0.03 | 94 | 1013.4 |
| 20260902042518 | 21 | 45 | 4.8 | 8.0 | 0.00 | 0.03 | 0.03 | 95 | 1013.3 |
| 20260902041517 | 21 | 68 | 4.8 | 8.0 | 0.00 | 0.03 | 0.03 | 95 | 1013.4 |
| 20260902040517 | 22 | 68 | 1.6 | 4.8 | 0.00 | 0.03 | 0.03 | 95 | 1014.0 |
| 20260902035517 | 21 | 68 | 1.6 | 4.8 | 0.00 | 0.03 | 0.03 | 95 | 1013.6 |
| 20260902034517 | 21 | 68 | 1.6 | 4.8 | 0.00 | 0.03 | 0.03 | 95 | 1013.3 |
| 20260902033517 | 21 | 68 | 3.2 | 6.4 | 0.00 | 0.03 | 0.03 | 95 | 1013.5 |
| 20260902032517 | 21 | 90 | 4.8 | 11.3 | 0.00 | 0.03 | 0.03 | 95 | 1013.0 |
| 20260902031517 | 21 | 68 | 1.6 | 4.8 | 0.00 | 0.03 | 0.03 | 95 | 1013.5 |
| 20260902030538 | 21 | 68 | 4.8 | 6.4 | 0.00 | 0.03 | 0.03 | 95 | 1013.3 |
| 20260902025537 | 21 | 45 | 4.8 | 6.4 | 0.00 | 0.03 | 0.03 | 95 | 1013.7 |
| 20260902024517 | 22 | 45 | 6.4 | 8.0 | 0.00 | 0.03 | 0.03 | 95 | 1013.8 |
| 20260902023517 | 21 | 45 | 4.8 | 6.4 | 0.00 | 0.03 | 0.03 | 95 | 1013.8 |
| 20260902022537 | 21 | 45 | 6.4 | 8.0 | 0.00 | 0.03 | 0.03 | 95 | 1013.5 |
| 20260902021517 | 21 | 45 | 1.6 | 4.8 | 0.00 | 0.03 | 0.03 | 95 | 1013.4 |
| 20260902020537 | 21 | 0.0 | 0.0 | 0.00 | 0.03 | 0.03 | 95 | 1013.4 | |
| 20260902015517 | 22 | 45 | 4.8 | 6.4 | 0.00 | 0.03 | 0.03 | 95 | 1013.3 |
| 20260902014517 | 21 | 45 | 6.4 | 8.0 | 0.00 | 0.03 | 0.03 | 94 | 1013.1 |
| 20260902013517 | 22 | 45 | 4.8 | 6.4 | 0.00 | 0.03 | 0.03 | 94 | 1013.1 |
| 20260902012517 | 22 | 45 | 3.2 | 6.4 | 0.00 | 0.03 | 0.03 | 94 | 1013.1 |
| 20260902011517 | 22 | 45 | 1.6 | 3.2 | 0.00 | 0.03 | 0.03 | 93 | 1013.0 |
| 20260902010516 | 22 | 45 | 1.6 | 3.2 | 0.00 | 0.03 | 0.03 | 93 | 1012.8 |
| 20260902005517 | 23 | 45 | 3.2 | 4.8 | 0.00 | 0.03 | 0.03 | 92 | 1013.1 |
| 20260902004517 | 23 | 45 | 1.6 | 3.2 | 0.00 | 0.03 | 0.03 | 91 | 1013.2 |
| 20260902003516 | 23 | 45 | 1.6 | 4.8 | 0.00 | 0.03 | 0.03 | 90 | 1013.1 |
| 20260902002517 | 24 | 45 | 4.8 | 8.0 | 0.00 | 0.03 | 0.03 | 89 | 1012.9 |
| 20260902001516 | 25 | 45 | 4.8 | 9.7 | 0.00 | 0.03 | 0.03 | 88 | 1013.1 |
| 20260901235518 | 25 | 23 | 6.4 | 8.0 | 0.00 | 0.03 | 0.03 | 89 | 1013.2 |
| 20260901234516 | 25 | 23 | 6.4 | 9.7 | 0.00 | 0.03 | 0.03 | 87 | 1013.5 |
| 20260901233517 | 26 | 23 | 6.4 | 8.0 | 0.00 | 0.03 | 0.03 | 85 | 1013.5 |
| 20260901232517 | 26 | 23 | 8.0 | 14.5 | 0.00 | 0.03 | 0.03 | 84 | 1013.6 |
| 20260901231517 | 26 | 45 | 8.0 | 12.9 | 0.00 | 0.03 | 0.03 | 84 | 1013.6 |
| 20260901230516 | 27 | 45 | 8.0 | 9.7 | 0.00 | 0.03 | 0.03 | 83 | 1013.6 |
| 20260901225517 | 27 | 23 | 8.0 | 12.9 | 0.00 | 0.03 | 0.03 | 84 | 1013.5 |
| 20260901224516 | 27 | 68 | 4.8 | 8.0 | 0.00 | 0.03 | 0.03 | 86 | 1013.5 |
| 20260901223516 | 27 | 68 | 4.8 | 6.4 | 0.00 | 0.03 | 0.03 | 86 | 1013.5 |
| 20260901222516 | 27 | 68 | 4.8 | 8.0 | 0.00 | 0.03 | 0.03 | 84 | 1013.5 |
| 20260901221517 | 27 | 68 | 4.8 | 8.0 | 0.00 | 0.03 | 0.03 | 84 | 1013.5 |
| 20260901220516 | 27 | 68 | 4.8 | 6.4 | 0.00 | 0.03 | 0.03 | 82 | 1013.5 |
| 20260901215517 | 27 | 68 | 3.2 | 6.4 | 0.00 | 0.03 | 0.03 | 80 | 1013.6 |
| 20260901214516 | 27 | 68 | 1.6 | 4.8 | 0.00 | 0.03 | 0.03 | 80 | 1013.5 |
| 20260901213536 | 27 | 68 | 1.6 | 6.4 | 0.00 | 0.03 | 0.03 | 79 | 1013.7 |
| 20260901212517 | 27 | 68 | 1.6 | 4.8 | 0.00 | 0.03 | 0.03 | 80 | 1013.7 |
| 20260901211517 | 27 | 68 | 3.2 | 8.0 | 0.00 | 0.03 | 0.03 | 78 | 1013.7 |
| 20260901210516 | 27 | 0.0 | 1.6 | 0.00 | 0.03 | 0.03 | 78 | 1013.7 | |
| 20260901205536 | 27 | 68 | 1.6 | 4.8 | 0.00 | 0.03 | 0.03 | 76 | 1013.8 |
| 20260901204537 | 27 | 45 | 4.8 | 8.0 | 0.00 | 0.03 | 0.03 | 77 | 1013.9 |
| 20260901203516 | 27 | 45 | 1.6 | 8.0 | 0.00 | 0.03 | 0.03 | 76 | 1013.9 |
| 20260901202516 | 27 | 45 | 6.4 | 8.0 | 0.00 | 0.03 | 0.03 | 75 | 1013.9 |
| 20260901201557 | 27 | 68 | 1.6 | 6.4 | 0.00 | 0.03 | 0.03 | 77 | 1014.1 |
| 20260901200516 | 27 | 68 | 1.6 | 4.8 | 0.00 | 0.03 | 0.03 | 73 | 1014.2 |
| 20260901195516 | 27 | 68 | 3.2 | 6.4 | 0.00 | 0.03 | 0.03 | 77 | 1014.3 |
| 20260901194516 | 27 | 68 | 1.6 | 8.0 | 0.00 | 0.03 | 0.03 | 77 | 1014.2 |
| 20260901193556 | 27 | 90 | 1.6 | 6.4 | 0.00 | 0.03 | 0.03 | 76 | 1014.2 |
| 20260901192516 | 27 | 90 | 3.2 | 8.0 | 0.00 | 0.03 | 0.03 | 77 | 1014.1 |
| 20260901191537 | 27 | 68 | 4.8 | 11.3 | 0.00 | 0.03 | 0.03 | 77 | 1014.2 |
| 20260901190516 | 27 | 68 | 3.2 | 6.4 | 0.00 | 0.03 | 0.03 | 77 | 1014.3 |
| 20260901185536 | 27 | 90 | 4.8 | 8.0 | 0.00 | 0.03 | 0.03 | 76 | 1014.3 |
| 20260901184516 | 27 | 90 | 1.6 | 4.8 | 0.00 | 0.03 | 0.03 | 79 | 1014.5 |
| 20260901183516 | 27 | 90 | 1.6 | 6.4 | 0.00 | 0.03 | 0.03 | 77 | 1014.6 |
| 20260901182516 | 27 | 135 | 1.6 | 4.8 | 0.00 | 0.03 | 0.03 | 75 | 1014.8 |
| 20260901181516 | 27 | 0.0 | 4.8 | 0.00 | 0.03 | 0.03 | 72 | 1015.0 | |
| 20260901180517 | 27 | 0.0 | 1.6 | 0.00 | 0.03 | 0.03 | 74 | 1015.0 | |
| 20260901175516 | 27 | 135 | 1.6 | 4.8 | 0.00 | 0.03 | 0.03 | 73 | 1015.1 |
| 20260901174515 | 27 | 135 | 3.2 | 8.0 | 0.00 | 0.03 | 0.03 | 75 | 1015.3 |
| 20260901173516 | 27 | 113 | 3.2 | 9.7 | 0.00 | 0.03 | 0.03 | 73 | 1014.9 |
| 20260901172516 | 27 | 90 | 4.8 | 8.0 | 0.00 | 0.03 | 0.03 | 75 | 1014.9 |
| 20260901171515 | 27 | 90 | 1.6 | 4.8 | 0.00 | 0.03 | 0.03 | 72 | 1015.4 |
| 20260901170536 | 27 | 45 | 1.6 | 6.4 | 0.00 | 0.03 | 0.03 | 70 | 1015.3 |